Hourly Data Report for October 03, 2017

All times are specified in Local Standard Time (LST). Add 1 hour to adjust for Daylight Saving Time where and when it is observed.

MALAHAT
BRITISH COLUMBIA

48°34'29.700" N
123°31'47.700" W
365.80 m
1014820
71774
WKH

Download Data

Hourly Data (October 2017)
Hourly Data Report for October 3, 2017
Temp Definition
°C
Dew Point Temp Definition
°C
Rel Hum Definition
%
Wind Dir Definition
10's deg

Wind Spd Definition
km/h
Visibility Definition
km
Stn Press Definition
kPa
Hmdx Definition


Wind Chill Definition


Weather Definition


TIME
00:00 11.1 -1.6 41 LegendMM LegendMM   98.10     LegendNANA
01:00 10.3 -1.1 45 LegendMM LegendMM   98.11     LegendNANA
02:00 10.6 -0.4 47 LegendMM LegendMM   98.12     LegendNANA
03:00 10.6 -0.4 46 LegendMM LegendMM   98.12     LegendNANA
04:00 10.6 -1.0 44 LegendMM LegendMM   98.13     LegendNANA
05:00 10.0 -1.2 46 LegendMM LegendMM   98.17     LegendNANA
06:00 8.9 -0.9 50 LegendMM LegendMM   98.19     LegendNANA
07:00 10.2 0.7 52 LegendMM LegendMM   98.16     LegendNANA
08:00 12.1 0.0 43 LegendMM LegendMM   98.21     LegendNANA
09:00 12.3 1.8 49 LegendMM LegendMM   98.24     LegendNANA
10:00 13.2 2.8 49 LegendMM LegendMM   98.26     LegendNANA
11:00 14.4 0.9 40 LegendMM LegendMM   98.25     LegendNANA
12:00 15.5 2.3 41 LegendMM LegendMM   98.20     LegendNANA
13:00 16.6 -0.5 31 LegendMM LegendMM   98.14     LegendNANA
14:00 16.6 -0.7 31 LegendMM LegendMM   98.09     LegendNANA
15:00 15.2 -1.5 32 LegendMM LegendMM   98.03     LegendNANA
16:00 14.3 -0.5 36 LegendMM LegendMM   97.98     LegendNANA
17:00 13.2 -0.9 38 LegendMM LegendMM   97.95     LegendNANA
18:00 12.0 -1.9 38 LegendMM LegendMM   97.92     LegendNANA
19:00 11.0 -1.6 41 LegendMM LegendMM   97.91     LegendNANA
20:00 10.7 -1.1 44 LegendMM LegendMM   97.91     LegendNANA
21:00 11.5 -4.2 33 LegendMM LegendMM   97.90     LegendNANA
22:00 12.2 -2.0 37 LegendMM LegendMM   97.88     LegendNANA
23:00 11.7 -3.1 35 LegendMM LegendMM   97.87     LegendNANA

Notes on Data Quality.

Legend

  • E = Estimated
  • M = Missing
  • NA = Not Available
  • ‡ = Partner data that is not subject to review by the National Climate Archives
Date modified: